Norris Lake Weather Center

Moon Phase Calendar



Norris Lake Water Level
Online Cameras

 


      

Current Conditions in Maynardville
11/26/2021 6:05:23 PM

35°F
Feels Like 32
Clear
Humidity
66%
Pressure
30.18"
Wind
3.2 mph (NNW)
Dew Point
25°F
UV Index
0/10 (Low)
Visibility
6 mi

Hourly Forecast

Date & Time Fri, Nov 26
6:00 PM
Fri, Nov 26
7:00 PM
Fri, Nov 26
8:00 PM
Fri, Nov 26
9:00 PM
Fri, Nov 26
10:00 PM
Fri, Nov 26
11:00 PM
Sat, Nov 27
12:00 AM
Sat, Nov 27
1:00 AM
Sat, Nov 27
2:00 AM
Sat, Nov 27
3:00 AM
Sat, Nov 27
4:00 AM
Sat, Nov 27
5:00 AM
Sat, Nov 27
6:00 AM
Sat, Nov 27
7:00 AM
Sat, Nov 27
8:00 AM
Sat, Nov 27
9:00 AM
Sat, Nov 27
10:00 AM
Sat, Nov 27
11:00 AM
Sat, Nov 27
12:00 PM
Sat, Nov 27
1:00 PM
Sat, Nov 27
2:00 PM
Sat, Nov 27
3:00 PM
Sat, Nov 27
4:00 PM
Sat, Nov 27
5:00 PM
Sat, Nov 27
6:00 PM
Sat, Nov 27
7:00 PM
Sat, Nov 27
8:00 PM
Sat, Nov 27
9:00 PM
Sat, Nov 27
10:00 PM
Sat, Nov 27
11:00 PM
Sun, Nov 28
12:00 AM
Sun, Nov 28
1:00 AM
Sun, Nov 28
2:00 AM
Sun, Nov 28
3:00 AM
Sun, Nov 28
4:00 AM
Sun, Nov 28
5:00 AM
Sun, Nov 28
6:00 AM
Sun, Nov 28
7:00 AM
Sun, Nov 28
8:00 AM
Sun, Nov 28
9:00 AM
Sun, Nov 28
10:00 AM
Sun, Nov 28
11:00 AM
Sun, Nov 28
12:00 PM
Sun, Nov 28
1:00 PM
Sun, Nov 28
2:00 PM
Sun, Nov 28
3:00 PM
Sun, Nov 28
4:00 PM
Sun, Nov 28
5:00 PM
Condition
Clear

Clear

Clear

Clear

Clear

Clear

Clear

Clear

Clear

Clear

Clear

Clear

Clear

Clear

Clear

Clear

Clear

Clear

Clear

Clear

Clear

Clear

Clear

Clear

Clouds

Clouds

Clouds

Clouds

Clouds

Clouds

Clouds

Clouds

Clouds

Clouds

Clouds

Clouds

Clouds

Clouds

Clouds

Clouds

Clouds

Clouds

Clouds

Clouds

Clouds

Clouds

Clouds

Clouds
Temperature 35°F34°F33°F31°F30°F29°F29°F29°F29°F28°F28°F28°F28°F28°F29°F34°F39°F43°F46°F49°F50°F50°F48°F43°F38°F37°F37°F37°F36°F36°F36°F36°F35°F35°F34°F34°F34°F33°F34°F39°F43°F46°F48°F49°F49°F49°F48°F44°F
Feels Like 32°F31°F33°F31°F30°F29°F29°F29°F29°F28°F28°F28°F28°F28°F29°F34°F37°F40°F43°F46°F46°F47°F45°F39°F35°F35°F33°F33°F33°F32°F32°F31°F31°F31°F31°F31°F31°F33°F34°F39°F43°F44°F46°F46°F46°F46°F44°F40°F
Cloudiness 1%1%1%0%0%0%1%1%0%0%0%0%0%1%0%2%3%2%2%2%1%1%2%3%11%25%81%91%90%90%92%93%100%100%100%100%99%94%76%88%92%94%94%95%100%91%90%83%
Visibility 6 mi6 mi6 mi6 mi6 mi6 mi6 mi6 mi6 mi6 mi6 mi6 mi6 mi6 mi6 mi6 mi6 mi6 mi6 mi6 mi6 mi6 mi6 mi6 mi6 mi6 mi6 mi6 mi6 mi6 mi6 mi6 mi6 mi6 mi6 mi6 mi6 mi6 mi6 mi6 mi6 mi6 mi6 mi6 mi6 mi6 mi6 mi6 mi
Precipitation 0%0%0%0%0%0%0%0%0%0%0%0%0%0%0%0%0%0%0%0%0%0%0%0%0%0%0%0%0%0%0%0%0%0%0%0%0%0%0%0%0%0%0%0%0%0%0%0%
Humidity 66%67%67%68%68%68%67%67%66%66%66%66%66%67%65%54%45%38%34%32%32%35%45%55%63%66%68%69%70%71%71%72%75%76%78%79%80%82%80%72%65%63%62%61%61%61%66%75%
Dew Point 25°F25°F24°F23°F22°F19°F19°F19°F18°F18°F18°F18°F18°F18°F19°F19°F19°F19°F19°F20°F21°F23°F27°F27°F26°F26°F27°F27°F27°F27°F27°F27°F28°F28°F28°F28°F28°F28°F28°F30°F31°F33°F35°F36°F36°F36°F36°F36°F
Pressure 30.18"30.18"30.18"30.21"30.21"30.21"30.21"30.21"30.21"30.21"30.21"30.21"30.21"30.21"30.21"30.21"30.18"30.15"30.12"30.09"30.06"30.03"30.03"30.03"30.03"30.03"30.06"30.03"30.06"30.06"30.06"30.06"30.03"30.06"30.03"30.03"30.06"30.06"30.09"30.09"30.09"30.09"30.06"30.03"30.03"30.03"30.06"30.06"
Wind Speed 3.2 mph3 mph2.8 mph2.3 mph2.6 mph1.8 mph1.3 mph1.2 mph0.4 mph0.4 mph0.4 mph1.1 mph1.3 mph2 mph2.2 mph2.2 mph3.3 mph4.3 mph5.6 mph6.2 mph6.1 mph6.9 mph6.4 mph5.1 mph3.9 mph3.6 mph4.1 mph4.4 mph4.6 mph5.4 mph5.3 mph5.5 mph4.6 mph4.4 mph3.8 mph3.3 mph3.1 mph2.5 mph2.4 mph2.1 mph2.4 mph3.6 mph5.1 mph5.7 mph6.4 mph7.2 mph7 mph6.1 mph
Wind
Direction
328°
NNW
320°
NW
316°
NW
320°
NW
326°
NW
323°
NW
293°
WNW
277°
W
298°
WNW
292°
WNW
191°
S
165°
SSE
181°
S
178°
S
170°
S
168°
SSE
178°
S
192°
SSW
210°
SSW
216°
SW
213°
SSW
210°
SSW
204°
SSW
200°
SSW
203°
SSW
206°
SSW
210°
SSW
217°
SW
233°
SW
221°
SW
221°
SW
217°
SW
210°
SSW
220°
SW
214°
SW
227°
SW
232°
SW
262°
W
247°
WSW
316°
NW
296°
WNW
284°
WNW
300°
WNW
297°
WNW
299°
WNW
304°
NW
308°
NW
314°
NW

Daily Forecast

Date High Low Precip. Humidity
Today
Nov 26

Rain
42 °F
29 °F
100%
57%
Saturday
Nov 27

Clear
50 °F
28 °F
0%
34%
Sunday
Nov 28

Clouds
49 °F
33 °F
0%
61%
Monday
Nov 29

Clouds
47 °F
29 °F
0%
34%
Tuesday
Nov 30

Clear
56 °F
34 °F
0%
57%
Wednesday
Dec 1

Clouds
54 °F
37 °F
0%
51%
Thursday
Dec 2

Clouds
60 °F
41 °F
0%
64%
Friday
Dec 3

Clouds
63 °F
48 °F
0%
61%
Saturday
Dec 4

Rain
54 °F
34 °F
100%
91%
Sunday
Dec 5

Clouds
42 °F
28 °F
0%
35%
Monday
Dec 6

Snow
35 °F
31 °F
100%
87%
Tuesday
Dec 7

Snow
34 °F
17 °F
100%
94%
Wednesday
Dec 8

Clouds
37 °F
14 °F
2%
84%
Thursday
Dec 9

Clear
42 °F
21 °F
0%
79%
Friday
Dec 10

Clouds
44 °F
30 °F
0%
82%
Saturday
Dec 11

Rain
51 °F
39 °F
93%
98%

Temperature 8-14 Day Outlook



Precipitation 8-14 Day Outlook




Quick Links
Norris Lake News
Norris Lake Photos
Norris Lake Videos




About Us
Contact Us
Site Map
Search Site
Advertise With Us
   
www.NorrisLakeNews.com
THE NORRIS LAKE WEBSITE

Copyright 2021, Lakes Online
Privacy    |    Legal